EW0844 Weather Reports


Display with metric or nautical units.
time (UTC)temp
F
wind
direction
speed
MPH
gust
MPH
rain 1hr
in
rain 24hr
in
rain mn
in
humidity
%
barometer
mb
20260505223414 57 257 5.0 10.0 0.00 0.00 0.00 73 1008.7
20260505221914 58 300 6.0 11.0 0.00 0.00 0.00 72 1008.7
20260505214913 58 323 6.0 11.0 0.00 0.00 0.00 73 1008.4
20260505211913 58 177 3.0 7.0 0.00 0.00 0.00 73 1008.0
20260505210413 58 268 2.0 8.0 0.00 0.00 0.00 74 1007.9
20260505204913 58 240 2.0 5.0 0.00 0.00 0.00 73 1007.5
20260505203413 58 116 2.0 6.0 0.00 0.00 0.00 72 1007.2
20260505201912 58 215 3.0 4.0 0.00 0.00 0.00 72 1006.8
20260505200413 58 249 2.0 4.0 0.00 0.00 0.00 72 1006.6
20260505194912 58 229 1.0 3.0 0.00 0.00 0.00 73 1006.4
20260505193412 59 213 1.0 2.0 0.00 0.00 0.00 72 1006.2
20260505191912 59 278 1.0 4.0 0.00 0.00 0.00 71 1006.0
20260505190414 60 256 2.0 4.0 0.00 0.00 0.00 70 1005.6
20260505183413 60 285 2.0 4.0 0.00 0.00 0.00 68 1004.9
20260505181913 61 316 3.0 4.0 0.00 0.00 0.00 67 1004.6
20260505180413 62 19 2.0 4.0 0.00 0.00 0.00 65 1004.5
20260505174914 63 1 2.0 4.0 0.00 0.00 0.00 62 1004.5
20260505173414 64 359 3.0 5.0 0.00 0.00 0.00 61 1004.5
20260505171915 64 313 2.0 5.0 0.00 0.00 0.00 60 1004.4
20260505170414 64 20 1.0 3.0 0.00 0.00 0.00 59 1004.1
20260505164913 65 359 3.0 5.0 0.00 0.00 0.00 58 1004.4
20260505161914 66 220 3.0 6.0 0.00 0.00 0.00 56 1004.7
20260505160413 67 211 4.0 10.0 0.00 0.00 0.00 51 1004.8
20260505151913 71 268 5.0 10.0 0.00 0.00 0.00 40 1004.1
20260505140412 74 254 2.0 4.0 0.00 0.00 0.00 34 1004.0
20260505123413 75 98 2.0 9.0 0.00 0.00 0.00 34 1004.3
20260505121914 75 64 8.0 14.0 0.00 0.00 0.00 35 1004.5
20260505120414 75 127 5.0 10.0 0.00 0.00 0.00 36 1004.6
20260505114913 74 359 3.0 7.0 0.00 0.00 0.00 36 1004.6
20260505113413 74 66 4.0 9.0 0.00 0.00 0.00 36 1004.9
20260505111913 74 181 5.0 8.0 0.00 0.00 0.00 35 1005.1
20260505110413 74 57 2.0 4.0 0.00 0.00 0.00 35 1005.4
20260505101915 73 76 4.0 6.0 0.00 0.00 0.00 35 1006.1
20260505100413 73 78 5.0 8.0 0.00 0.00 0.00 35 1006.3
20260505094913 71 62 1.0 4.0 0.00 0.00 0.00 39 1006.5
20260505093413 71 111 3.0 5.0 0.00 0.00 0.00 39 1006.7
20260505091914 69 71 2.0 5.0 0.00 0.00 0.00 43 1006.8
20260505090414 68 243 4.0 6.0 0.00 0.00 0.00 46 1007.1
20260505084913 69 283 1.0 3.0 0.00 0.00 0.00 48 1007.0
20260505081913 68 35 1.0 4.0 0.00 0.00 0.00 50 1007.1
20260505074912 68 40 3.0 7.0 0.00 0.00 0.00 51 1007.2
20260505073414 66 313 1.0 4.0 0.00 0.00 0.00 53 1007.4
20260505071915 66 27 1.0 3.0 0.00 0.00 0.00 53 1007.3
20260505070414 66 359 2.0 4.0 0.00 0.00 0.00 53 1007.5
20260505063414 64 177 2.0 4.0 0.00 0.00 0.00 54 1007.6
20260505060413 62 275 2.0 4.0 0.00 0.00 0.00 58 1007.7
20260505054915 59 329 1.0 2.0 0.00 0.00 0.00 64 1007.7
20260505053415 59 116 2.0 3.0 0.00 0.00 0.00 65 1007.8
20260505051913 55 1 1.0 2.0 0.00 0.00 0.00 71 1007.9
20260505050413 52 71 1.0 2.0 0.00 0.00 0.00 76 1007.8
20260505040413 51 268 0.0 2.0 0.00 0.00 0.00 77 1007.9
20260505034913 52 116 1.0 2.0 0.00 0.00 0.00 76 1007.8
20260505033413 52 88 1.0 2.0 0.00 0.00 0.00 76 1007.9
20260505031912 53 45 1.0 2.0 0.00 0.00 0.00 77 1008.0
20260505030413 53 88 1.0 2.0 0.00 0.00 0.00 76 1008.1
20260505023413 54 62 1.0 2.0 0.00 0.00 0.00 75 1008.2
20260505021912 55 88 0.0 1.0 0.00 0.00 0.00 74 1008.4
20260505020414 55 45 0.0 2.0 0.00 0.00 0.00 73 1008.5
20260505014914 56 108 1.0 2.0 0.00 0.00 0.00 72 1008.5
20260505013414 57 123 1.0 2.0 0.00 0.00 0.00 72 1008.6
20260505011913 57 62 1.0 2.0 0.00 0.00 0.00 71 1008.6
20260505010413 57 123 1.0 1.0 0.00 0.00 0.00 70 1008.8
20260505004916 58 268 0.0 1.0 0.00 0.00 0.00 70 1008.8
20260505003413 58 177 1.0 2.0 0.00 0.00 0.00 69 1009.1
20260504234913 58 44 1.0 3.0 0.00 0.00 0.00 67 1009.5
20260504231913 59 230 1.0 4.0 0.00 0.00 0.00 65 1009.8
20260504224914 60 222 4.0 8.0 0.00 0.00 0.00 62 1009.9